Miscellaneous Local Product
Issued by NWS Hastings, NE

Home | Current Version | Previous Version | Text Only | Print | Product List | Glossary On
Versions: 1 2 3 4 5 6 7 8 9 10 11 12 13 14 15 16 17 18 19 20 21 22 23 24 25 26 27 28 29 30 31 32 33 34 35 36 37 38 39 40 41 42 43 44 45 46 47 48 49 50
008
AXUS43 KGID 050402
MISGRI

GID CWA HOURLY WEATHER ROUNDUP
NATIONAL WEATHER SERVICE HASTINGS NE
1100 PM CDT WED MAY 04 2016

NOTE: "FAIR" INDICATES FEW OR NO CLOUDS BELOW 12,000 FEET WITH NO
SIGNIFICANT WEATHER AND/OR OBSTRUCTIONS TO VISIBILITY.

...SOUTH CENTRAL NEBRASKA...

CITY           SKY/WX    TMP DP  RH WIND       PRES   REMARKS
GRAND ISLAND   CLEAR     50  38  63 CALM      30.07S
HASTINGS       CLEAR     52  37  56 CALM      30.07R
KEARNEY        CLEAR     55  39  54 CALM      30.09R
ORD            CLEAR     46  41  82 CALM      30.07R
YORK           CLEAR     50  37  62 NW6       30.06S
AURORA         CLEAR     50  35  56 NW8       30.07R
LEXINGTON      CLEAR     54  41  62 CALM      30.09R
HOLDREGE       CLEAR     54  39  57 E5        30.08S
HEBRON         CLEAR     51  38  59 CALM      30.05S

...NEBRASKA PANHANDLE...

CITY           SKY/WX    TMP DP  RH WIND       PRES   REMARKS
CHADRON        CLEAR     57  42  57 SE10      30.03R
ALLIANCE       CLEAR     49  42  77 S8        30.08S
SCOTTSBLUFF    CLEAR     56  43  61 SE6       30.09R
SIDNEY         CLEAR     50  42  74 S8        30.14R

...WESTERN AND NORTH CENTRAL NEBRASKA...

CITY           SKY/WX    TMP DP  RH WIND       PRES   REMARKS
VALENTINE      CLEAR     56  38  50 CALM      30.07R
AINSWORTH      CLEAR     51  41  68 SE6       30.08S
ONEILL         CLEAR     56  38  51 CALM      30.07S
BROKEN BOW     CLEAR     46  39  76 N3        30.08R
IMPERIAL       CLEAR     56  41  57 SE5       30.10R
NORTH PLATTE   CLEAR     50  40  68 E6        30.08S
MCCOOK         CLEAR     59  41  51 SE5       30.09R

...EASTERN NEBRASKA...

CITY           SKY/WX    TMP DP  RH WIND       PRES   REMARKS
NORFOLK        CLEAR     46  38  73 W5        30.05R
SO SIOUX CITY  CLEAR     54  38  54 NW3       30.02R
TEKAMAH        CLEAR     53  42  66 NW6       30.01S
COLUMBUS       CLEAR     52  34  50 NW3       30.06R
ALBION         CLEAR     47  37  69 NW3       30.07R
OMAHA EPPLEY   CLEAR     54  44  69 CALM      30.01R
OFFUTT AFB     CLEAR     50  43  78 NW7       30.01R
MILLARD        CLEAR     53  44  70 CALM      30.02R
LINCOLN        CLEAR     54  40  59 CALM      30.05R
NEBRASKA CITY  CLEAR     58  36  43 N6        30.02R
BEATRICE       CLEAR     53  39  59 CALM      30.04R
FALLS CITY     CLEAR     53  39  59 NW5       30.01R

...NORTHERN KANSAS...

CITY           SKY/WX    TMP DP  RH WIND       PRES   REMARKS
GOODLAND       CLEAR     55  42  61 SE5       30.12R
HILL CITY      CLEAR     50  44  80 CALM      30.09R
NORTON         CLEAR     55  39  54 CALM      30.08
PHILLIPSBURG   CLEAR     54  45  71 CALM      30.08S
SMITH CENTER   CLEAR     50  37  62 CALM      30.08R
BELOIT         CLEAR     48  43  81 CALM      30.05S
HAYS           CLEAR     55  41  58 MISG        N/A
RUSSELL        CLEAR     56  41  57 SE5       30.07R
CONCORDIA      CLEAR     56  34  43 NW3       30.05R
SALINA         CLEAR     56  42  59 CALM      30.05S
TOPEKA         CLEAR     52  43  71 CALM      30.02R



USA.gov is the U.S. government's official web portal to all federal, state and local government web resources and services.